DW9005 Weather Reports


Display with metric or nautical units.
time (UTC)temp
F
wind
direction
speed
MPH
gust
MPH
rain 1hr
in
rain 24hr
in
rain mn
in
humidity
%
barometer
mb
20260902164502 93 0.0 0.0 0.00 0.00 0.00 59 1018.8
20260902163100 93 0.0 0.0 0.00 0.00 0.00 58 1018.8
20260902161541 92 0.0 0.0 0.00 0.00 0.00 60 1019.0
20260902160037 91 0.0 0.0 0.00 0.00 0.00 61 1019.1
20260902154520 90 0.0 0.0 0.00 0.00 0.00 63 1019.3
20260902153017 89 0.0 0.0 0.00 0.00 0.00 68 1019.2
20260902151558 88 0.0 0.0 0.00 0.00 0.00 70 1019.3
20260902150052 88 0.0 0.0 0.00 0.00 0.00 74 1019.2
20260902144529 86 0.0 0.0 0.00 0.00 0.00 76 1019.2
20260902143027 86 0.0 0.0 0.00 0.00 0.00 77 1019.1
20260902141515 84 0.0 0.0 0.00 0.00 0.00 81 1019.1
20260902140001 82 0.0 0.0 0.00 0.00 0.00 83 1019.0
20260902134541 80 0.0 0.0 0.00 0.00 0.00 89 1019.0
20260902133037 78 0.0 0.0 0.00 0.00 0.00 93 1019.1
20260902131515 76 0.0 0.0 0.00 0.00 0.00 94 1019.0
20260902130013 75 0.0 0.0 0.00 0.00 0.00 95 1019.0
20260902124602 74 0.0 0.0 0.00 0.00 0.00 95 1019.0
20260902123053 73 0.0 0.0 0.00 0.00 0.00 95 1018.9
20260902121538 73 0.0 0.0 0.00 0.00 0.00 95 1018.9
20260902120033 73 0.0 0.0 0.00 0.00 0.00 95 1018.8
20260902114514 72 0.0 0.0 0.00 0.00 0.00 95 1018.5
20260902113014 72 0.0 0.0 0.00 0.00 0.00 95 1018.5
20260902111558 73 0.0 0.0 0.00 0.00 0.00 95 1018.4
20260902110055 73 0.0 0.0 0.00 0.00 0.00 95 1018.3
20260902104539 73 0.0 0.0 0.00 0.00 0.00 95 1018.2
20260902103043 73 0.0 0.0 0.00 0.00 0.00 95 1018.0
20260902101525 73 0.0 0.0 0.00 0.00 0.00 95 1018.0
20260902100015 73 0.0 0.0 0.00 0.00 0.00 95 1018.0
20260902094556 73 0.0 0.0 0.00 0.00 0.00 95 1017.7
20260902093130 73 0.0 0.0 0.00 0.00 0.00 95 1017.6
20260902091544 73 0.0 0.0 0.00 0.00 0.00 95 1017.4
20260902090033 74 0.0 0.0 0.00 0.00 0.00 95 1017.3
20260902084516 74 0.0 0.0 0.00 0.00 0.00 95 1017.2
20260902083013 74 0.0 0.0 0.00 0.00 0.00 95 1017.1
20260902081613 74 0.0 0.0 0.00 0.00 0.00 95 1017.0
20260902080054 74 0.0 0.0 0.00 0.00 0.00 95 1017.0
20260902074535 74 0.0 0.0 0.00 0.00 0.00 94 1016.9
20260902073036 74 0.0 0.0 0.00 0.00 0.00 94 1016.8
20260902071515 75 0.0 0.0 0.00 0.00 0.00 94 1016.9
20260902070020 75 0.0 0.0 0.00 0.00 0.00 94 1016.9
20260902064617 75 0.0 0.0 0.00 0.00 0.00 94 1017.0
20260902063059 75 0.0 0.0 0.00 0.00 0.00 94 1017.0
20260902060110 75 0.0 0.0 0.00 0.00 0.00 94 1017.2
20260902054559 76 0.0 0.0 0.00 0.00 0.00 94 1017.3
20260902053056 76 0.0 0.0 0.00 0.00 0.00 94 1017.3
20260902051557 76 0.0 0.0 0.00 0.00 0.00 94 1017.2
20260902050110 76 0.0 0.0 0.00 0.00 0.00 93 1017.3
20260902044608 76 0.0 0.0 0.00 0.00 0.00 93 1017.3
20260902043056 77 0.0 0.0 0.00 0.00 0.00 93 1017.3
20260902041556 77 0.0 0.0 0.00 0.00 0.00 92 1017.4
20260902040058 77 0.0 0.0 0.00 0.00 0.00 92 1017.3
20260902034601 78 0.0 0.0 0.00 0.00 0.00 92 1017.4
20260902033105 78 0.0 0.0 0.00 0.00 0.00 91 1017.4
20260902031534 78 0.0 0.0 0.00 0.00 0.00 90 1017.5
20260902030034 78 0.0 0.0 0.00 0.00 0.00 90 1017.5
20260902024521 79 0.0 0.0 0.00 0.00 0.00 89 1017.5
20260902023016 79 0.0 0.0 0.00 0.00 0.00 88 1017.4
20260902021601 80 0.0 0.0 0.00 0.00 0.00 88 1017.3
20260902020111 80 0.0 0.0 0.00 0.00 0.00 87 1017.1
20260902014543 80 0.0 0.0 0.00 0.00 0.00 85 1017.0
20260902013040 81 0.0 0.0 0.00 0.00 0.00 83 1016.9
20260902011527 82 0.0 0.0 0.00 0.00 0.00 82 1016.7
20260902010023 82 0.0 0.0 0.00 0.00 0.00 78 1016.6
20260902004505 83 0.0 0.0 0.00 0.00 0.00 76 1016.4
20260902003003 85 0.0 0.0 0.00 0.00 0.00 75 1016.4
20260902001545 86 0.0 0.0 0.00 0.00 0.00 74 1016.3
20260902000044 88 0.0 0.0 0.00 0.00 0.00 72 1016.3
20260901234525 90 0.0 0.0 0.00 0.00 0.00 65 1016.4
20260901233025 91 0.0 0.0 0.00 0.00 0.00 60 1016.5
20260901231508 93 0.0 0.0 0.00 0.00 0.00 55 1016.6
20260901230008 93 0.0 0.0 0.00 0.00 0.00 54 1016.6
20260901224550 94 0.0 0.0 0.00 0.00 0.00 54 1016.6
20260901223051 94 0.0 0.0 0.00 0.00 0.00 54 1016.5
20260901221531 93 0.0 0.0 0.00 0.00 0.00 55 1016.4
20260901220036 94 0.0 0.0 0.00 0.00 0.00 54 1016.4
20260901214513 93 0.0 0.0 0.00 0.00 0.00 55 1016.4
20260901213013 94 0.0 0.0 0.00 0.00 0.00 54 1016.5
20260901211553 94 0.0 0.0 0.00 0.00 0.00 52 1016.6
20260901210052 93 0.0 0.0 0.00 0.00 0.00 55 1016.8
20260901204543 93 0.0 0.0 0.00 0.00 0.00 57 1016.8
20260901203034 93 0.0 0.0 0.00 0.00 0.00 53 1017.0
20260901201514 94 0.0 0.0 0.00 0.00 0.00 53 1017.1
20260901200012 93 0.0 0.0 0.00 0.00 0.00 55 1017.4
20260901194558 93 0.0 0.0 0.00 0.00 0.00 52 1017.4
20260901193056 93 0.0 0.0 0.00 0.00 0.00 56 1017.6
20260901191534 92 0.0 0.0 0.00 0.00 0.00 56 1017.8
20260901190034 93 0.0 0.0 0.00 0.00 0.00 57 1018.0
20260901184522 92 0.0 0.0 0.00 0.00 0.00 56 1018.1
20260901183013 92 0.0 0.0 0.00 0.00 0.00 57 1018.3
20260901181558 92 0.0 0.0 0.00 0.00 0.00 57 1018.4
20260901180051 91 0.0 0.0 0.00 0.00 0.00 61 1018.6
20260901174532 90 0.0 0.0 0.00 0.00 0.00 59 1018.8
20260901173031 91 0.0 0.0 0.00 0.00 0.00 59 1018.8
20260901171513 90 0.0 0.0 0.00 0.00 0.00 61 1019.0
20260901170012 90 0.0 0.0 0.00 0.00 0.00 61 1019.2